Back to catalog

DELTA 1 DEB

AliveSSO
NORAD 2154·DEBRIS·🇺🇸 United States

Launched Feb 3, 1966 from Cape Canaveral Space Force Station

Loading…

Next Passes (next 24 hours)

TLE

FreshSource: Space-Track

Epoch: Sep 14, 2026, 13:31 UTC

1 02154U 66008E   26257.56359697  .00000679  00000-0  11433-3 0  9991
2 02154  97.8819  10.9078 0046536  23.0637 337.2646 14.71964279192166

Track DELTA 1 DEB in real time with AllMySat

Download on the App Store